Location: Powder Track
(41.8531°N, 72.3584°W)
Time: 00:18:41
(UTC+00:00)

Vanguard 1 Rocket - Pass Details

Date: 13 August 2021
Orbit: 650 x 4226 km, 34.3° (Epoch: 19 September)

Event Time Altitude Azimuth Distance (km) Brightness Sun altitude
Rises 18:58:41 0° 282° (WNW) 6,967 12.3 51.6°
Reaches altitude 10° 19:06:23 10° 265° (W) 5,121 12.0 50.4°
Maximum altitude 19:13:18 16° 234° (SW) 3,817 11.7 49.4°
Drops below altitude 10° 19:18:27 10° 201° (SSW) 3,600 11.1 48.5°
Sets 19:22:22 0° 178° (S) 4,066 11.0 47.9°
